| time (UTC) | temp F | wind direction | speed MPH | gust MPH | rain 1hr in | rain 24hr in | rain mn in | humidity % | barometer mb |
| 20260902204539 | 90 | 40 | 0.0 | 0.0 | 0.00 | 0.00 | 0.00 | 65 | 1017.8 |
| 20260902204337 | 90 | 40 | 0.0 | 0.0 | 0.00 | 0.00 | 0.00 | 65 | 1017.8 |
| 20260902204137 | 90 | 40 | 0.0 | 0.0 | 0.00 | 0.00 | 0.00 | 65 | 1017.8 |
| 20260902203936 | 90 | 40 | 0.0 | 0.0 | 0.00 | 0.00 | 0.00 | 65 | 1017.8 |
| 20260902203736 | 90 | 40 | 0.0 | 0.0 | 0.00 | 0.00 | 0.00 | 66 | 1017.8 |
| 20260902203536 | 91 | 40 | 0.0 | 0.0 | 0.00 | 0.00 | 0.00 | 66 | 1017.8 |
| 20260902203335 | 91 | 40 | 0.0 | 0.0 | 0.00 | 0.00 | 0.00 | 66 | 1017.9 |
| 20260902203134 | 91 | 40 | 0.0 | 0.0 | 0.00 | 0.00 | 0.00 | 66 | 1017.9 |
| 20260902202931 | 91 | 40 | 0.0 | 1.0 | 0.00 | 0.00 | 0.00 | 66 | 1017.9 |
| 20260902202730 | 91 | 40 | 0.0 | 2.0 | 0.00 | 0.00 | 0.00 | 64 | 1017.9 |
| 20260902202531 | 91 | 40 | 0.0 | 2.0 | 0.00 | 0.00 | 0.00 | 64 | 1018.0 |
| 20260902202328 | 91 | 40 | 0.0 | 2.0 | 0.00 | 0.00 | 0.00 | 64 | 1017.9 |
| 20260902202127 | 91 | 40 | 0.0 | 2.0 | 0.00 | 0.00 | 0.00 | 64 | 1018.0 |
| 20260902201927 | 91 | 40 | 0.0 | 1.0 | 0.00 | 0.00 | 0.00 | 65 | 1018.0 |
| 20260902201723 | 91 | 40 | 0.0 | 1.0 | 0.00 | 0.00 | 0.00 | 66 | 1018.0 |
| 20260902201521 | 91 | 40 | 0.0 | 1.0 | 0.00 | 0.00 | 0.00 | 65 | 1018.0 |
| 20260902201320 | 91 | 40 | 0.0 | 1.0 | 0.00 | 0.00 | 0.00 | 64 | 1018.1 |
| 20260902201118 | 91 | 40 | 0.0 | 1.0 | 0.00 | 0.00 | 0.00 | 64 | 1018.1 |
| 20260902200917 | 91 | 40 | 0.0 | 0.0 | 0.00 | 0.00 | 0.00 | 63 | 1018.1 |
| 20260902200716 | 92 | 40 | 0.0 | 0.0 | 0.00 | 0.00 | 0.00 | 63 | 1018.1 |
| 20260902200515 | 92 | 40 | 0.0 | 1.0 | 0.00 | 0.00 | 0.00 | 63 | 1018.1 |
| 20260902200315 | 92 | 40 | 0.0 | 1.0 | 0.00 | 0.00 | 0.00 | 63 | 1018.1 |
| 20260902200113 | 92 | 40 | 0.0 | 2.0 | 0.00 | 0.00 | 0.00 | 62 | 1018.1 |
| 20260902195912 | 92 | 40 | 0.0 | 2.0 | 0.00 | 0.00 | 0.00 | 62 | 1018.2 |
| 20260902195712 | 92 | 40 | 0.0 | 2.0 | 0.00 | 0.00 | 0.00 | 61 | 1018.2 |
| 20260902195509 | 92 | 40 | 0.0 | 2.0 | 0.00 | 0.00 | 0.00 | 60 | 1018.2 |
| 20260902195307 | 92 | 40 | 0.0 | 2.0 | 0.00 | 0.00 | 0.00 | 60 | 1018.2 |
| 20260902195105 | 92 | 40 | 0.0 | 1.0 | 0.00 | 0.00 | 0.00 | 57 | 1018.2 |
| 20260902194906 | 92 | 40 | 0.0 | 1.0 | 0.00 | 0.00 | 0.00 | 57 | 1018.2 |
| 20260902194706 | 92 | 40 | 0.0 | 1.0 | 0.00 | 0.00 | 0.00 | 58 | 1018.3 |
| 20260902194505 | 92 | 40 | 0.0 | 1.0 | 0.00 | 0.00 | 0.00 | 56 | 1018.3 |
| 20260902194302 | 92 | 40 | 0.0 | 2.0 | 0.00 | 0.00 | 0.00 | 56 | 1018.3 |
| 20260902194102 | 92 | 40 | 1.0 | 2.0 | 0.00 | 0.00 | 0.00 | 59 | 1018.3 |
| 20260902193901 | 92 | 40 | 0.0 | 2.0 | 0.00 | 0.00 | 0.00 | 60 | 1018.3 |
| 20260902193701 | 92 | 40 | 1.0 | 2.0 | 0.00 | 0.00 | 0.00 | 60 | 1018.3 |
| 20260902193459 | 92 | 40 | 1.0 | 2.0 | 0.00 | 0.00 | 0.00 | 63 | 1018.3 |
| 20260902193100 | 92 | 40 | 0.0 | 2.0 | 0.00 | 0.00 | 0.00 | 61 | 1018.4 |
| 20260902192859 | 92 | 40 | 0.0 | 2.0 | 0.00 | 0.00 | 0.00 | 61 | 1018.4 |
| 20260902192657 | 92 | 40 | 0.0 | 2.0 | 0.00 | 0.00 | 0.00 | 60 | 1018.4 |
| 20260902192457 | 92 | 40 | 0.0 | 2.0 | 0.00 | 0.00 | 0.00 | 60 | 1018.4 |
| 20260902192255 | 92 | 40 | 1.0 | 3.0 | 0.00 | 0.00 | 0.00 | 57 | 1018.4 |
| 20260902191854 | 92 | 40 | 1.0 | 3.0 | 0.00 | 0.00 | 0.00 | 55 | 1018.4 |
| 20260902191654 | 92 | 40 | 1.0 | 3.0 | 0.00 | 0.00 | 0.00 | 56 | 1018.4 |
| 20260902191453 | 92 | 40 | 1.0 | 3.0 | 0.00 | 0.00 | 0.00 | 58 | 1018.5 |
| 20260902191252 | 92 | 40 | 1.0 | 3.0 | 0.00 | 0.00 | 0.00 | 59 | 1018.5 |
| 20260902191050 | 92 | 41 | 1.0 | 2.0 | 0.00 | 0.00 | 0.00 | 57 | 1018.5 |
| 20260902190849 | 92 | 41 | 1.0 | 2.0 | 0.00 | 0.00 | 0.00 | 60 | 1018.6 |
| 20260902190647 | 92 | 41 | 1.0 | 2.0 | 0.00 | 0.00 | 0.00 | 62 | 1018.6 |
| 20260902190449 | 92 | 41 | 1.0 | 2.0 | 0.00 | 0.00 | 0.00 | 62 | 1018.6 |
| 20260902190246 | 92 | 41 | 1.0 | 3.0 | 0.00 | 0.00 | 0.00 | 61 | 1018.6 |
| 20260902190046 | 92 | 41 | 1.0 | 3.0 | 0.00 | 0.00 | 0.00 | 65 | 1018.7 |
| 20260902185844 | 92 | 41 | 1.0 | 3.0 | 0.00 | 0.00 | 0.00 | 63 | 1018.7 |
| 20260902185642 | 92 | 41 | 1.0 | 3.0 | 0.00 | 0.00 | 0.00 | 63 | 1018.7 |
| 20260902185439 | 92 | 41 | 1.0 | 3.0 | 0.00 | 0.00 | 0.00 | 58 | 1018.7 |
| 20260902185238 | 92 | 42 | 1.0 | 3.0 | 0.00 | 0.00 | 0.00 | 62 | 1018.7 |
| 20260902184838 | 92 | 42 | 1.0 | 3.0 | 0.00 | 0.00 | 0.00 | 61 | 1018.6 |
| 20260902184638 | 92 | 96 | 1.0 | 3.0 | 0.00 | 0.00 | 0.00 | 55 | 1018.7 |
| 20260902184437 | 92 | 88 | 1.0 | 3.0 | 0.00 | 0.00 | 0.00 | 56 | 1018.7 |
| 20260902184240 | 92 | 41 | 1.0 | 3.0 | 0.00 | 0.00 | 0.00 | 57 | 1018.7 |
| 20260902184040 | 92 | 41 | 1.0 | 3.0 | 0.00 | 0.00 | 0.00 | 64 | 1018.7 |
| 20260902183839 | 92 | 41 | 1.0 | 3.0 | 0.00 | 0.00 | 0.00 | 63 | 1018.7 |
| 20260902183437 | 92 | 117 | 0.0 | 1.0 | 0.00 | 0.00 | 0.00 | 60 | 1018.9 |
| 20260902183034 | 92 | 117 | 0.0 | 1.0 | 0.00 | 0.00 | 0.00 | 57 | 1018.9 |
| 20260902182833 | 92 | 117 | 0.0 | 1.0 | 0.00 | 0.00 | 0.00 | 64 | 1019.0 |
| 20260902182631 | 92 | 117 | 0.0 | 2.0 | 0.00 | 0.00 | 0.00 | 61 | 1018.9 |
| 20260902182427 | 92 | 117 | 1.0 | 2.0 | 0.00 | 0.00 | 0.00 | 60 | 1018.9 |
| 20260902182229 | 92 | 117 | 1.0 | 2.0 | 0.00 | 0.00 | 0.00 | 58 | 1019.0 |
| 20260902182029 | 92 | 117 | 1.0 | 2.0 | 0.00 | 0.00 | 0.00 | 58 | 1019.0 |
| 20260902181627 | 92 | 117 | 0.0 | 2.0 | 0.00 | 0.00 | 0.00 | 58 | 1019.0 |
| 20260902181423 | 92 | 117 | 0.0 | 2.0 | 0.00 | 0.00 | 0.00 | 60 | 1018.9 |
| 20260902181228 | 92 | 117 | 1.0 | 2.0 | 0.00 | 0.00 | 0.00 | 60 | 1018.9 |
| 20260902181024 | 92 | 117 | 1.0 | 3.0 | 0.00 | 0.00 | 0.00 | 59 | 1019.0 |
| 20260902180825 | 92 | 117 | 1.0 | 3.0 | 0.00 | 0.00 | 0.00 | 59 | 1019.0 |
| 20260902180623 | 92 | 117 | 1.0 | 3.0 | 0.00 | 0.00 | 0.00 | 60 | 1019.0 |
| 20260902180219 | 91 | 116 | 1.0 | 3.0 | 0.00 | 0.00 | 0.00 | 56 | 1019.0 |
| 20260902180018 | 91 | 120 | 0.0 | 2.0 | 0.00 | 0.00 | 0.00 | 59 | 1019.0 |
| 20260902175417 | 92 | 121 | 0.0 | 1.0 | 0.00 | 0.00 | 0.00 | 63 | 1019.0 |
| 20260902175013 | 92 | 121 | 0.0 | 1.0 | 0.00 | 0.00 | 0.00 | 65 | 1019.0 |
| 20260902174814 | 92 | 121 | 0.0 | 1.0 | 0.00 | 0.00 | 0.00 | 63 | 1019.0 |
| 20260902174411 | 92 | 121 | 0.0 | 1.0 | 0.00 | 0.00 | 0.00 | 61 | 1019.1 |
| 20260902174011 | 92 | 121 | 1.0 | 2.0 | 0.00 | 0.00 | 0.00 | 60 | 1019.1 |
| 20260902173810 | 92 | 121 | 0.0 | 2.0 | 0.00 | 0.00 | 0.00 | 60 | 1019.1 |
| 20260902173610 | 92 | 120 | 1.0 | 2.0 | 0.00 | 0.00 | 0.00 | 60 | 1019.2 |
| 20260902173411 | 92 | 120 | 1.0 | 2.0 | 0.00 | 0.00 | 0.00 | 61 | 1019.1 |
| 20260902173208 | 92 | 120 | 1.0 | 2.0 | 0.00 | 0.00 | 0.00 | 60 | 1019.2 |
| 20260902172807 | 92 | 121 | 1.0 | 3.0 | 0.00 | 0.00 | 0.00 | 60 | 1019.2 |
| 20260902172607 | 92 | 124 | 1.0 | 3.0 | 0.00 | 0.00 | 0.00 | 60 | 1019.3 |
| 20260902172408 | 92 | 124 | 1.0 | 3.0 | 0.00 | 0.00 | 0.00 | 64 | 1019.3 |
| 20260902172212 | 92 | 124 | 1.0 | 3.0 | 0.00 | 0.00 | 0.00 | 60 | 1019.3 |
| 20260902172007 | 92 | 142 | 1.0 | 3.0 | 0.00 | 0.00 | 0.00 | 59 | 1019.3 |
| 20260902171804 | 92 | 123 | 1.0 | 2.0 | 0.00 | 0.00 | 0.00 | 59 | 1019.4 |
| 20260902171606 | 92 | 123 | 0.0 | 1.0 | 0.00 | 0.00 | 0.00 | 58 | 1019.4 |
| 20260902171406 | 92 | 123 | 0.0 | 2.0 | 0.00 | 0.00 | 0.00 | 59 | 1019.4 |
| 20260902171204 | 92 | 120 | 1.0 | 2.0 | 0.00 | 0.00 | 0.00 | 59 | 1019.4 |
| 20260902171002 | 92 | 120 | 1.0 | 3.0 | 0.00 | 0.00 | 0.00 | 60 | 1019.4 |
| 20260902170801 | 92 | 120 | 1.0 | 3.0 | 0.00 | 0.00 | 0.00 | 59 | 1019.4 |
| 20260902170604 | 92 | 120 | 1.0 | 3.0 | 0.00 | 0.00 | 0.00 | 57 | 1019.5 |
| 20260902170359 | 91 | 120 | 1.0 | 3.0 | 0.00 | 0.00 | 0.00 | 57 | 1019.5 |
| 20260902170201 | 91 | 120 | 0.0 | 3.0 | 0.00 | 0.00 | 0.00 | 57 | 1019.5 |
| 20260902165956 | 91 | 121 | 0.0 | 2.0 | 0.00 | 0.00 | 0.00 | 58 | 1019.5 |
| 20260902165757 | 91 | 121 | 0.0 | 2.0 | 0.00 | 0.00 | 0.00 | 57 | 1019.5 |
| 20260902165354 | 91 | 121 | 1.0 | 2.0 | 0.00 | 0.00 | 0.00 | 60 | 1019.5 |
| 20260902165154 | 91 | 121 | 1.0 | 2.0 | 0.00 | 0.00 | 0.00 | 59 | 1019.5 |
| 20260902164954 | 91 | 121 | 1.0 | 2.0 | 0.00 | 0.00 | 0.00 | 60 | 1019.5 |
| 20260902164751 | 91 | 121 | 0.0 | 2.0 | 0.00 | 0.00 | 0.00 | 61 | 1019.5 |
| 20260902164551 | 91 | 121 | 0.0 | 2.0 | 0.00 | 0.00 | 0.00 | 62 | 1019.6 |
| 20260902164351 | 91 | 121 | 0.0 | 0.0 | 0.00 | 0.00 | 0.00 | 64 | 1019.6 |
| 20260902164151 | 91 | 121 | 0.0 | 0.0 | 0.00 | 0.00 | 0.00 | 64 | 1019.7 |
| 20260902163952 | 91 | 121 | 0.0 | 1.0 | 0.00 | 0.00 | 0.00 | 64 | 1019.7 |
| 20260902163750 | 91 | 121 | 0.0 | 2.0 | 0.00 | 0.00 | 0.00 | 64 | 1019.7 |
| 20260902163549 | 91 | 121 | 0.0 | 2.0 | 0.00 | 0.00 | 0.00 | 63 | 1019.6 |
| 20260902163350 | 91 | 121 | 0.0 | 2.0 | 0.00 | 0.00 | 0.00 | 63 | 1019.7 |
| 20260902162946 | 90 | 121 | 0.0 | 2.0 | 0.00 | 0.00 | 0.00 | 59 | 1019.7 |
| 20260902162744 | 90 | 121 | 0.0 | 2.0 | 0.00 | 0.00 | 0.00 | 60 | 1019.7 |
| 20260902162541 | 90 | 121 | 0.0 | 2.0 | 0.00 | 0.00 | 0.00 | 62 | 1019.7 |
| 20260902162142 | 90 | 121 | 0.0 | 2.0 | 0.00 | 0.00 | 0.00 | 64 | 1019.7 |
| 20260902161742 | 90 | 121 | 0.0 | 2.0 | 0.00 | 0.00 | 0.00 | 64 | 1019.8 |
| 20260902161543 | 90 | 121 | 0.0 | 2.0 | 0.00 | 0.00 | 0.00 | 63 | 1019.8 |
| 20260902161339 | 90 | 121 | 0.0 | 2.0 | 0.00 | 0.00 | 0.00 | 64 | 1019.8 |
| 20260902161138 | 90 | 121 | 0.0 | 2.0 | 0.00 | 0.00 | 0.00 | 64 | 1019.8 |
| 20260902160938 | 89 | 121 | 0.0 | 1.0 | 0.00 | 0.00 | 0.00 | 64 | 1019.8 |
| 20260902160735 | 89 | 121 | 0.0 | 1.0 | 0.00 | 0.00 | 0.00 | 63 | 1019.8 |
| 20260902160537 | 89 | 121 | 0.0 | 1.0 | 0.00 | 0.00 | 0.00 | 63 | 1019.8 |
| 20260902160335 | 89 | 121 | 0.0 | 2.0 | 0.00 | 0.00 | 0.00 | 64 | 1019.8 |
| 20260902160133 | 89 | 121 | 1.0 | 2.0 | 0.00 | 0.00 | 0.00 | 63 | 1019.9 |
| 20260902155933 | 89 | 121 | 1.0 | 2.0 | 0.00 | 0.00 | 0.00 | 64 | 1019.9 |
| 20260902155730 | 89 | 121 | 1.0 | 2.0 | 0.00 | 0.00 | 0.00 | 63 | 1019.9 |
| 20260902155529 | 89 | 123 | 1.0 | 2.0 | 0.00 | 0.00 | 0.00 | 62 | 1020.0 |
| 20260902155330 | 89 | 123 | 1.0 | 2.0 | 0.00 | 0.00 | 0.00 | 62 | 1019.9 |
| 20260902155130 | 89 | 122 | 0.0 | 2.0 | 0.00 | 0.00 | 0.00 | 65 | 1019.9 |
| 20260902154928 | 89 | 122 | 0.0 | 2.0 | 0.00 | 0.00 | 0.00 | 64 | 1019.9 |
| 20260902154726 | 89 | 123 | 1.0 | 2.0 | 0.00 | 0.00 | 0.00 | 62 | 1019.9 |
| 20260902154330 | 89 | 159 | 0.0 | 2.0 | 0.00 | 0.00 | 0.00 | 65 | 1019.9 |
| 20260902154121 | 88 | 159 | 0.0 | 2.0 | 0.00 | 0.00 | 0.00 | 66 | 1019.9 |
| 20260902153918 | 88 | 159 | 0.0 | 2.0 | 0.00 | 0.00 | 0.00 | 64 | 1019.9 |
| 20260902153720 | 88 | 159 | 0.0 | 2.0 | 0.00 | 0.00 | 0.00 | 66 | 1019.9 |
| 20260902153518 | 88 | 159 | 1.0 | 2.0 | 0.00 | 0.00 | 0.00 | 67 | 1019.9 |
| 20260902153317 | 88 | 159 | 1.0 | 2.0 | 0.00 | 0.00 | 0.00 | 64 | 1020.0 |
| 20260902153117 | 88 | 159 | 0.0 | 2.0 | 0.00 | 0.00 | 0.00 | 65 | 1020.0 |
| 20260902152717 | 88 | 160 | 0.0 | 2.0 | 0.00 | 0.00 | 0.00 | 70 | 1019.9 |
| 20260902152517 | 88 | 157 | 0.0 | 3.0 | 0.00 | 0.00 | 0.00 | 72 | 1020.0 |
| 20260902152117 | 87 | 157 | 1.0 | 4.0 | 0.00 | 0.00 | 0.00 | 71 | 1020.0 |
| 20260902151314 | 87 | 167 | 0.0 | 4.0 | 0.00 | 0.00 | 0.00 | 70 | 1020.0 |
| 20260902151113 | 87 | 109 | 0.0 | 0.0 | 0.00 | 0.00 | 0.00 | 74 | 1019.9 |
| 20260902150913 | 87 | 109 | 0.0 | 0.0 | 0.00 | 0.00 | 0.00 | 76 | 1020.0 |
| 20260902150713 | 86 | 109 | 0.0 | 0.0 | 0.00 | 0.00 | 0.00 | 77 | 1020.0 |
| 20260902150309 | 86 | 109 | 0.0 | 0.0 | 0.00 | 0.00 | 0.00 | 75 | 1019.9 |
| 20260902150109 | 86 | 109 | 0.0 | 1.0 | 0.00 | 0.00 | 0.00 | 77 | 1019.9 |
| 20260902145906 | 86 | 109 | 0.0 | 2.0 | 0.00 | 0.00 | 0.00 | 77 | 1020.0 |
| 20260902145307 | 86 | 108 | 0.0 | 3.0 | 0.00 | 0.00 | 0.00 | 77 | 1020.0 |
| 20260902145106 | 86 | 109 | 1.0 | 3.0 | 0.00 | 0.00 | 0.00 | 74 | 1020.0 |
| 20260902144907 | 85 | 108 | 0.0 | 3.0 | 0.00 | 0.00 | 0.00 | 72 | 1019.9 |
| 20260902144707 | 85 | 108 | 0.0 | 3.0 | 0.00 | 0.00 | 0.00 | 75 | 1019.9 |
| 20260902144104 | 85 | 266 | 0.0 | 1.0 | 0.00 | 0.00 | 0.00 | 78 | 1019.9 |
| 20260902143705 | 85 | 265 | 0.0 | 1.0 | 0.00 | 0.00 | 0.00 | 77 | 1019.8 |
| 20260902143506 | 85 | 265 | 0.0 | 1.0 | 0.00 | 0.00 | 0.00 | 78 | 1019.8 |
| 20260902143308 | 85 | 265 | 0.0 | 1.0 | 0.00 | 0.00 | 0.00 | 78 | 1019.7 |
| 20260902143105 | 85 | 265 | 0.0 | 1.0 | 0.00 | 0.00 | 0.00 | 78 | 1019.7 |
| 20260902142906 | 85 | 265 | 0.0 | 2.0 | 0.00 | 0.00 | 0.00 | 80 | 1019.7 |
| 20260902142705 | 85 | 265 | 0.0 | 2.0 | 0.00 | 0.00 | 0.00 | 79 | 1019.7 |
| 20260902142504 | 85 | 265 | 0.0 | 2.0 | 0.00 | 0.00 | 0.00 | 80 | 1019.7 |
| 20260902142301 | 85 | 265 | 0.0 | 2.0 | 0.00 | 0.00 | 0.00 | 79 | 1019.7 |
| 20260902141902 | 84 | 265 | 0.0 | 1.0 | 0.00 | 0.00 | 0.00 | 78 | 1019.7 |
| 20260902141659 | 84 | 265 | 0.0 | 1.0 | 0.00 | 0.00 | 0.00 | 80 | 1019.7 |
| 20260902141459 | 84 | 265 | 0.0 | 1.0 | 0.00 | 0.00 | 0.00 | 81 | 1019.7 |
| 20260902141258 | 84 | 267 | 0.0 | 1.0 | 0.00 | 0.00 | 0.00 | 83 | 1019.7 |
| 20260902141059 | 83 | 267 | 0.0 | 1.0 | 0.00 | 0.00 | 0.00 | 81 | 1019.7 |
| 20260902140900 | 83 | 267 | 0.0 | 1.0 | 0.00 | 0.00 | 0.00 | 85 | 1019.8 |
| 20260902140656 | 83 | 267 | 0.0 | 2.0 | 0.00 | 0.00 | 0.00 | 85 | 1019.8 |
| 20260902140253 | 82 | 267 | 0.0 | 2.0 | 0.00 | 0.00 | 0.00 | 87 | 1019.7 |
| 20260902140053 | 81 | 267 | 0.0 | 2.0 | 0.00 | 0.00 | 0.00 | 87 | 1019.7 |
| 20260902135851 | 81 | 267 | 0.0 | 2.0 | 0.00 | 0.00 | 0.00 | 87 | 1019.8 |
| 20260902135451 | 80 | 266 | 0.0 | 3.0 | 0.00 | 0.00 | 0.00 | 89 | 1019.8 |
| 20260902135252 | 80 | 267 | 0.0 | 3.0 | 0.00 | 0.00 | 0.00 | 90 | 1019.7 |
| 20260902135050 | 80 | 266 | 0.0 | 3.0 | 0.00 | 0.00 | 0.00 | 89 | 1019.8 |
| 20260902134851 | 79 | 266 | 0.0 | 3.0 | 0.00 | 0.00 | 0.00 | 89 | 1019.7 |
| 20260902134649 | 79 | 266 | 0.0 | 3.0 | 0.00 | 0.00 | 0.00 | 87 | 1019.8 |
| 20260902134446 | 79 | 45 | 0.0 | 2.0 | 0.00 | 0.00 | 0.00 | 90 | 1019.8 |
| 20260902134247 | 79 | 45 | 0.0 | 1.0 | 0.00 | 0.00 | 0.00 | 90 | 1019.8 |
| 20260902134049 | 78 | 45 | 0.0 | 1.0 | 0.00 | 0.00 | 0.00 | 91 | 1019.8 |
| 20260902133844 | 78 | 45 | 0.0 | 1.0 | 0.00 | 0.00 | 0.00 | 91 | 1019.8 |
| 20260902133646 | 78 | 45 | 0.0 | 2.0 | 0.00 | 0.00 | 0.00 | 92 | 1019.8 |
| 20260902133242 | 78 | 45 | 0.0 | 2.0 | 0.00 | 0.00 | 0.00 | 92 | 1019.8 |
| 20260902133043 | 78 | 45 | 0.0 | 3.0 | 0.00 | 0.00 | 0.00 | 92 | 1019.8 |
| 20260902132841 | 77 | 45 | 0.0 | 3.0 | 0.00 | 0.00 | 0.00 | 92 | 1019.8 |
| 20260902132640 | 77 | 45 | 0.0 | 3.0 | 0.00 | 0.00 | 0.00 | 93 | 1019.8 |
| 20260902132440 | 77 | 45 | 0.0 | 3.0 | 0.00 | 0.00 | 0.00 | 93 | 1019.8 |
| 20260902132239 | 77 | 45 | 0.0 | 3.0 | 0.00 | 0.00 | 0.00 | 93 | 1019.8 |
| 20260902132038 | 76 | 45 | 0.0 | 3.0 | 0.00 | 0.00 | 0.00 | 93 | 1019.7 |
| 20260902131838 | 76 | 45 | 0.0 | 3.0 | 0.00 | 0.00 | 0.00 | 93 | 1019.8 |
| 20260902131634 | 76 | 45 | 0.0 | 3.0 | 0.00 | 0.00 | 0.00 | 94 | 1019.8 |
| 20260902131434 | 76 | 45 | 0.0 | 3.0 | 0.00 | 0.00 | 0.00 | 94 | 1019.8 |
| 20260902131234 | 76 | 45 | 0.0 | 3.0 | 0.00 | 0.00 | 0.00 | 94 | 1019.8 |
| 20260902131032 | 76 | 98 | 0.0 | 1.0 | 0.00 | 0.00 | 0.00 | 94 | 1019.8 |
| 20260902130426 | 75 | 98 | 0.0 | 0.0 | 0.00 | 0.00 | 0.00 | 94 | 1019.9 |
| 20260902130226 | 75 | 98 | 0.0 | 0.0 | 0.00 | 0.00 | 0.00 | 94 | 1019.9 |
| 20260902130026 | 75 | 98 | 0.0 | 0.0 | 0.00 | 0.00 | 0.00 | 94 | 1019.8 |
| 20260902125823 | 75 | 98 | 0.0 | 0.0 | 0.00 | 0.00 | 0.00 | 94 | 1019.9 |
| 20260902125622 | 75 | 98 | 0.0 | 0.0 | 0.00 | 0.00 | 0.00 | 94 | 1019.9 |
| 20260902125420 | 75 | 98 | 0.0 | 0.0 | 0.00 | 0.00 | 0.00 | 94 | 1019.9 |
| 20260902125017 | 75 | 98 | 0.0 | 0.0 | 0.00 | 0.00 | 0.00 | 94 | 1019.8 |
| 20260902124816 | 74 | 98 | 0.0 | 0.0 | 0.00 | 0.00 | 0.00 | 94 | 1019.8 |
| 20260902124612 | 74 | 98 | 0.0 | 0.0 | 0.00 | 0.00 | 0.00 | 94 | 1019.8 |
| 20260902124411 | 74 | 98 | 0.0 | 0.0 | 0.00 | 0.00 | 0.00 | 94 | 1019.8 |
| 20260902124211 | 74 | 98 | 0.0 | 0.0 | 0.00 | 0.00 | 0.00 | 94 | 1019.8 |
| 20260902123611 | 74 | 98 | 0.0 | 0.0 | 0.00 | 0.00 | 0.00 | 94 | 1019.8 |
| 20260902123413 | 74 | 98 | 0.0 | 0.0 | 0.00 | 0.00 | 0.00 | 94 | 1019.8 |
| 20260902123213 | 74 | 98 | 0.0 | 0.0 | 0.00 | 0.00 | 0.00 | 94 | 1019.8 |
| 20260902123009 | 74 | 98 | 0.0 | 0.0 | 0.00 | 0.00 | 0.00 | 94 | 1019.8 |
| 20260902122809 | 74 | 98 | 0.0 | 0.0 | 0.00 | 0.00 | 0.00 | 94 | 1019.8 |
| 20260902122607 | 74 | 98 | 0.0 | 1.0 | 0.00 | 0.00 | 0.00 | 94 | 1019.8 |
| 20260902122407 | 74 | 98 | 0.0 | 1.0 | 0.00 | 0.00 | 0.00 | 94 | 1019.8 |
| 20260902122206 | 74 | 98 | 0.0 | 1.0 | 0.00 | 0.00 | 0.00 | 94 | 1019.8 |
| 20260902122007 | 74 | 98 | 0.0 | 1.0 | 0.00 | 0.00 | 0.00 | 94 | 1019.9 |
| 20260902121807 | 74 | 98 | 0.0 | 1.0 | 0.00 | 0.00 | 0.00 | 94 | 1019.9 |
| 20260902121607 | 74 | 98 | 0.0 | 1.0 | 0.00 | 0.00 | 0.00 | 94 | 1019.9 |
| 20260902121407 | 74 | 98 | 0.0 | 1.0 | 0.00 | 0.00 | 0.00 | 94 | 1019.9 |
| 20260902121206 | 73 | 98 | 0.0 | 0.0 | 0.00 | 0.00 | 0.00 | 94 | 1019.9 |
| 20260902121008 | 73 | 98 | 0.0 | 0.0 | 0.00 | 0.00 | 0.00 | 94 | 1019.9 |
| 20260902120806 | 73 | 98 | 0.0 | 0.0 | 0.00 | 0.00 | 0.00 | 94 | 1019.9 |
| 20260902120607 | 73 | 98 | 0.0 | 0.0 | 0.00 | 0.00 | 0.00 | 94 | 1019.9 |
| 20260902120407 | 73 | 98 | 0.0 | 0.0 | 0.00 | 0.00 | 0.00 | 94 | 1019.8 |
| 20260902120209 | 73 | 98 | 0.0 | 0.0 | 0.00 | 0.00 | 0.00 | 94 | 1019.8 |
| 20260902120006 | 73 | 98 | 0.0 | 0.0 | 0.00 | 0.00 | 0.00 | 94 | 1019.8 |
| 20260902115806 | 73 | 98 | 0.0 | 0.0 | 0.00 | 0.00 | 0.00 | 94 | 1019.8 |
| 20260902115607 | 73 | 98 | 0.0 | 0.0 | 0.00 | 0.00 | 0.00 | 94 | 1019.8 |
| 20260902115207 | 73 | 98 | 0.0 | 0.0 | 0.00 | 0.00 | 0.00 | 94 | 1019.8 |
| 20260902115007 | 73 | 98 | 0.0 | 0.0 | 0.00 | 0.00 | 0.00 | 94 | 1019.7 |
| 20260902114806 | 73 | 98 | 0.0 | 0.0 | 0.00 | 0.00 | 0.00 | 94 | 1019.7 |
| 20260902114609 | 73 | 98 | 0.0 | 0.0 | 0.00 | 0.00 | 0.00 | 94 | 1019.7 |
| 20260902114407 | 73 | 98 | 0.0 | 0.0 | 0.00 | 0.00 | 0.00 | 94 | 1019.7 |
| 20260902114208 | 73 | 98 | 0.0 | 0.0 | 0.00 | 0.00 | 0.00 | 94 | 1019.7 |
| 20260902113608 | 73 | 98 | 0.0 | 0.0 | 0.00 | 0.00 | 0.00 | 93 | 1019.7 |
| 20260902113407 | 73 | 98 | 0.0 | 0.0 | 0.00 | 0.00 | 0.00 | 93 | 1019.7 |
| 20260902113206 | 73 | 98 | 0.0 | 0.0 | 0.00 | 0.00 | 0.00 | 93 | 1019.7 |
| 20260902113009 | 73 | 98 | 0.0 | 0.0 | 0.00 | 0.00 | 0.00 | 93 | 1019.8 |
| 20260902112806 | 73 | 98 | 0.0 | 0.0 | 0.00 | 0.00 | 0.00 | 93 | 1019.8 |
| 20260902112607 | 73 | 98 | 0.0 | 0.0 | 0.00 | 0.00 | 0.00 | 93 | 1019.8 |
| 20260902112406 | 73 | 98 | 0.0 | 0.0 | 0.00 | 0.00 | 0.00 | 93 | 1019.8 |
| 20260902112208 | 73 | 98 | 0.0 | 0.0 | 0.00 | 0.00 | 0.00 | 93 | 1019.7 |
| 20260902112006 | 73 | 98 | 0.0 | 0.0 | 0.00 | 0.00 | 0.00 | 93 | 1019.7 |
| 20260902111806 | 73 | 98 | 0.0 | 0.0 | 0.00 | 0.00 | 0.00 | 93 | 1019.7 |
| 20260902111606 | 73 | 98 | 0.0 | 0.0 | 0.00 | 0.00 | 0.00 | 93 | 1019.6 |
| 20260902111407 | 73 | 98 | 0.0 | 0.0 | 0.00 | 0.00 | 0.00 | 93 | 1019.6 |
| 20260902111007 | 73 | 98 | 0.0 | 0.0 | 0.00 | 0.00 | 0.00 | 93 | 1019.6 |
| 20260902110808 | 73 | 98 | 0.0 | 0.0 | 0.00 | 0.00 | 0.00 | 93 | 1019.6 |
| 20260902110406 | 73 | 98 | 0.0 | 0.0 | 0.00 | 0.00 | 0.00 | 93 | 1019.6 |
| 20260902110207 | 73 | 98 | 0.0 | 0.0 | 0.00 | 0.00 | 0.00 | 93 | 1019.5 |
| 20260902105806 | 73 | 98 | 0.0 | 0.0 | 0.00 | 0.00 | 0.00 | 93 | 1019.5 |
| 20260902105606 | 73 | 98 | 0.0 | 0.0 | 0.00 | 0.00 | 0.00 | 93 | 1019.5 |
| 20260902105407 | 73 | 98 | 0.0 | 0.0 | 0.00 | 0.00 | 0.00 | 93 | 1019.6 |
| 20260902105206 | 73 | 98 | 0.0 | 0.0 | 0.00 | 0.00 | 0.00 | 93 | 1019.5 |
| 20260902105007 | 73 | 98 | 0.0 | 0.0 | 0.00 | 0.00 | 0.00 | 93 | 1019.5 |
| 20260902104806 | 73 | 98 | 0.0 | 0.0 | 0.00 | 0.00 | 0.00 | 93 | 1019.5 |
| 20260902104607 | 73 | 98 | 0.0 | 0.0 | 0.00 | 0.00 | 0.00 | 93 | 1019.4 |
| 20260902104207 | 73 | 98 | 0.0 | 0.0 | 0.00 | 0.00 | 0.00 | 93 | 1019.3 |
| 20260902104006 | 73 | 98 | 0.0 | 0.0 | 0.00 | 0.00 | 0.00 | 93 | 1019.4 |
| 20260902103806 | 73 | 98 | 0.0 | 0.0 | 0.00 | 0.00 | 0.00 | 93 | 1019.4 |
| 20260902103607 | 73 | 98 | 0.0 | 0.0 | 0.00 | 0.00 | 0.00 | 93 | 1019.3 |
| 20260902103406 | 73 | 98 | 0.0 | 0.0 | 0.00 | 0.00 | 0.00 | 93 | 1019.3 |
| 20260902103208 | 73 | 98 | 0.0 | 0.0 | 0.00 | 0.00 | 0.00 | 93 | 1019.2 |
| 20260902103007 | 73 | 98 | 0.0 | 0.0 | 0.00 | 0.00 | 0.00 | 93 | 1019.2 |
| 20260902102807 | 73 | 98 | 0.0 | 0.0 | 0.00 | 0.00 | 0.00 | 93 | 1019.2 |
| 20260902102608 | 73 | 98 | 0.0 | 1.0 | 0.00 | 0.00 | 0.00 | 93 | 1019.3 |
| 20260902102406 | 73 | 98 | 0.0 | 1.0 | 0.00 | 0.00 | 0.00 | 93 | 1019.3 |
| 20260902102207 | 73 | 98 | 0.0 | 1.0 | 0.00 | 0.00 | 0.00 | 93 | 1019.2 |
| 20260902102006 | 73 | 98 | 0.0 | 1.0 | 0.00 | 0.00 | 0.00 | 93 | 1019.2 |
| 20260902101807 | 73 | 98 | 0.0 | 1.0 | 0.00 | 0.00 | 0.00 | 93 | 1019.3 |
| 20260902101213 | 73 | 98 | 0.0 | 0.0 | 0.00 | 0.00 | 0.00 | 93 | 1019.2 |
| 20260902101006 | 73 | 98 | 0.0 | 0.0 | 0.00 | 0.00 | 0.00 | 93 | 1019.2 |
| 20260902100806 | 73 | 98 | 0.0 | 0.0 | 0.00 | 0.00 | 0.00 | 93 | 1019.2 |
| 20260902100607 | 73 | 98 | 0.0 | 0.0 | 0.00 | 0.00 | 0.00 | 93 | 1019.1 |
| 20260902100408 | 73 | 98 | 0.0 | 0.0 | 0.00 | 0.00 | 0.00 | 93 | 1019.1 |
| 20260902100207 | 73 | 98 | 0.0 | 0.0 | 0.00 | 0.00 | 0.00 | 93 | 1019.1 |
| 20260902100006 | 73 | 98 | 0.0 | 0.0 | 0.00 | 0.00 | 0.00 | 93 | 1019.1 |
| 20260902095807 | 74 | 98 | 0.0 | 0.0 | 0.00 | 0.00 | 0.00 | 93 | 1019.1 |
| 20260902095408 | 74 | 98 | 0.0 | 0.0 | 0.00 | 0.00 | 0.00 | 93 | 1019.1 |
| 20260902095206 | 74 | 98 | 0.0 | 0.0 | 0.00 | 0.00 | 0.00 | 93 | 1019.1 |
| 20260902095008 | 74 | 98 | 0.0 | 0.0 | 0.00 | 0.00 | 0.00 | 93 | 1019.1 |
| 20260902094806 | 74 | 98 | 0.0 | 0.0 | 0.00 | 0.00 | 0.00 | 93 | 1019.1 |
| 20260902094610 | 74 | 98 | 0.0 | 0.0 | 0.00 | 0.00 | 0.00 | 93 | 1019.1 |
| 20260902094405 | 74 | 98 | 0.0 | 0.0 | 0.00 | 0.00 | 0.00 | 93 | 1019.0 |
| 20260902094205 | 74 | 98 | 0.0 | 0.0 | 0.00 | 0.00 | 0.00 | 93 | 1019.0 |
| 20260902093801 | 74 | 98 | 0.0 | 0.0 | 0.00 | 0.00 | 0.00 | 93 | 1019.0 |
| 20260902093600 | 74 | 98 | 0.0 | 0.0 | 0.00 | 0.00 | 0.00 | 93 | 1018.9 |
| 20260902093400 | 74 | 98 | 0.0 | 0.0 | 0.00 | 0.00 | 0.00 | 93 | 1018.9 |
| 20260902093157 | 74 | 98 | 0.0 | 0.0 | 0.00 | 0.00 | 0.00 | 93 | 1018.9 |
| 20260902092959 | 74 | 98 | 0.0 | 0.0 | 0.00 | 0.00 | 0.00 | 93 | 1018.9 |
| 20260902092757 | 74 | 98 | 0.0 | 0.0 | 0.00 | 0.00 | 0.00 | 93 | 1018.9 |
| 20260902092355 | 74 | 98 | 0.0 | 0.0 | 0.00 | 0.00 | 0.00 | 93 | 1018.8 |
| 20260902092153 | 74 | 98 | 0.0 | 0.0 | 0.00 | 0.00 | 0.00 | 93 | 1018.8 |
| 20260902091953 | 74 | 98 | 0.0 | 0.0 | 0.00 | 0.00 | 0.00 | 93 | 1018.8 |
| 20260902091755 | 74 | 98 | 0.0 | 0.0 | 0.00 | 0.00 | 0.00 | 93 | 1018.8 |
| 20260902091552 | 74 | 98 | 0.0 | 0.0 | 0.00 | 0.00 | 0.00 | 93 | 1018.9 |
| 20260902091150 | 74 | 98 | 0.0 | 0.0 | 0.00 | 0.00 | 0.00 | 93 | 1018.8 |
| 20260902090951 | 74 | 98 | 0.0 | 0.0 | 0.00 | 0.00 | 0.00 | 93 | 1018.7 |
| 20260902090751 | 74 | 98 | 0.0 | 0.0 | 0.00 | 0.00 | 0.00 | 93 | 1018.7 |
| 20260902090548 | 74 | 98 | 0.0 | 0.0 | 0.00 | 0.00 | 0.00 | 93 | 1018.8 |
| 20260902090346 | 74 | 98 | 0.0 | 0.0 | 0.00 | 0.00 | 0.00 | 93 | 1018.7 |
| 20260902090146 | 74 | 98 | 0.0 | 0.0 | 0.00 | 0.00 | 0.00 | 93 | 1018.7 |
| 20260902085946 | 74 | 98 | 0.0 | 0.0 | 0.00 | 0.00 | 0.00 | 93 | 1018.8 |
| 20260902085746 | 74 | 98 | 0.0 | 0.0 | 0.00 | 0.00 | 0.00 | 93 | 1018.7 |
| 20260902085543 | 74 | 98 | 0.0 | 0.0 | 0.00 | 0.00 | 0.00 | 93 | 1018.7 |
| 20260902085342 | 74 | 98 | 0.0 | 0.0 | 0.00 | 0.00 | 0.00 | 93 | 1018.7 |
| 20260902085142 | 74 | 98 | 0.0 | 0.0 | 0.00 | 0.00 | 0.00 | 92 | 1018.6 |
| 20260902084739 | 74 | 98 | 0.0 | 1.0 | 0.00 | 0.00 | 0.00 | 92 | 1018.7 |
| 20260902084538 | 74 | 98 | 0.0 | 1.0 | 0.00 | 0.00 | 0.00 | 92 | 1018.7 |
| 20260902084135 | 74 | 98 | 0.0 | 1.0 | 0.00 | 0.00 | 0.00 | 92 | 1018.7 |
| 20260902083733 | 74 | 98 | 0.0 | 0.0 | 0.00 | 0.00 | 0.00 | 92 | 1018.7 |
| 20260902083332 | 74 | 98 | 0.0 | 0.0 | 0.00 | 0.00 | 0.00 | 93 | 1018.7 |
| 20260902083129 | 74 | 98 | 0.0 | 0.0 | 0.00 | 0.00 | 0.00 | 93 | 1018.7 |
| 20260902082725 | 74 | 98 | 0.0 | 0.0 | 0.00 | 0.00 | 0.00 | 93 | 1018.7 |
| 20260902082324 | 74 | 98 | 0.0 | 0.0 | 0.00 | 0.00 | 0.00 | 93 | 1018.6 |
| 20260902082125 | 74 | 98 | 0.0 | 0.0 | 0.00 | 0.00 | 0.00 | 93 | 1018.6 |
| 20260902081923 | 74 | 98 | 0.0 | 0.0 | 0.00 | 0.00 | 0.00 | 93 | 1018.6 |
| 20260902081721 | 74 | 98 | 0.0 | 0.0 | 0.00 | 0.00 | 0.00 | 93 | 1018.6 |
| 20260902081519 | 74 | 98 | 0.0 | 0.0 | 0.00 | 0.00 | 0.00 | 93 | 1018.6 |
| 20260902081318 | 74 | 98 | 0.0 | 0.0 | 0.00 | 0.00 | 0.00 | 93 | 1018.6 |
| 20260902081116 | 74 | 98 | 0.0 | 0.0 | 0.00 | 0.00 | 0.00 | 93 | 1018.6 |
| 20260902080914 | 74 | 98 | 0.0 | 0.0 | 0.00 | 0.00 | 0.00 | 93 | 1018.6 |
| 20260902080715 | 74 | 98 | 0.0 | 0.0 | 0.00 | 0.00 | 0.00 | 93 | 1018.6 |
| 20260902080315 | 74 | 98 | 0.0 | 0.0 | 0.00 | 0.00 | 0.00 | 93 | 1018.6 |
| 20260902080112 | 74 | 98 | 0.0 | 0.0 | 0.00 | 0.00 | 0.00 | 93 | 1018.6 |
| 20260902075709 | 74 | 98 | 0.0 | 0.0 | 0.00 | 0.00 | 0.00 | 92 | 1018.6 |
| 20260902075307 | 74 | 98 | 0.0 | 0.0 | 0.00 | 0.00 | 0.00 | 92 | 1018.6 |
| 20260902075105 | 75 | 98 | 0.0 | 0.0 | 0.00 | 0.00 | 0.00 | 92 | 1018.6 |
| 20260902074706 | 75 | 98 | 0.0 | 0.0 | 0.00 | 0.00 | 0.00 | 92 | 1018.5 |
| 20260902074304 | 75 | 98 | 0.0 | 0.0 | 0.00 | 0.00 | 0.00 | 92 | 1018.6 |
| 20260902074105 | 75 | 98 | 0.0 | 0.0 | 0.00 | 0.00 | 0.00 | 92 | 1018.6 |
| 20260902073905 | 75 | 98 | 0.0 | 0.0 | 0.00 | 0.00 | 0.00 | 92 | 1018.6 |
| 20260902073704 | 75 | 98 | 0.0 | 0.0 | 0.00 | 0.00 | 0.00 | 92 | 1018.6 |
| 20260902073504 | 75 | 98 | 0.0 | 0.0 | 0.00 | 0.00 | 0.00 | 92 | 1018.5 |
| 20260902073304 | 75 | 98 | 0.0 | 0.0 | 0.00 | 0.00 | 0.00 | 92 | 1018.6 |
| 20260902073103 | 75 | 98 | 0.0 | 0.0 | 0.00 | 0.00 | 0.00 | 92 | 1018.6 |
| 20260902072902 | 75 | 98 | 0.0 | 0.0 | 0.00 | 0.00 | 0.00 | 92 | 1018.6 |
| 20260902072700 | 75 | 98 | 0.0 | 0.0 | 0.00 | 0.00 | 0.00 | 92 | 1018.6 |
| 20260902072501 | 75 | 98 | 0.0 | 0.0 | 0.00 | 0.00 | 0.00 | 92 | 1018.6 |
| 20260902072300 | 75 | 98 | 0.0 | 0.0 | 0.00 | 0.00 | 0.00 | 92 | 1018.7 |
| 20260902072059 | 75 | 98 | 0.0 | 0.0 | 0.00 | 0.00 | 0.00 | 92 | 1018.6 |
| 20260902071858 | 75 | 98 | 0.0 | 0.0 | 0.00 | 0.00 | 0.00 | 92 | 1018.6 |
| 20260902071656 | 75 | 98 | 0.0 | 0.0 | 0.00 | 0.00 | 0.00 | 92 | 1018.6 |
| 20260902071454 | 75 | 98 | 0.0 | 0.0 | 0.00 | 0.00 | 0.00 | 92 | 1018.6 |
| 20260902071254 | 75 | 98 | 0.0 | 0.0 | 0.00 | 0.00 | 0.00 | 92 | 1018.6 |
| 20260902071056 | 75 | 98 | 0.0 | 0.0 | 0.00 | 0.00 | 0.00 | 92 | 1018.6 |
| 20260902070854 | 75 | 98 | 0.0 | 0.0 | 0.00 | 0.00 | 0.00 | 92 | 1018.6 |
| 20260902070653 | 75 | 98 | 0.0 | 0.0 | 0.00 | 0.00 | 0.00 | 92 | 1018.6 |
| 20260902070450 | 75 | 98 | 0.0 | 0.0 | 0.00 | 0.00 | 0.00 | 92 | 1018.7 |
| 20260902070250 | 75 | 98 | 0.0 | 0.0 | 0.00 | 0.00 | 0.00 | 92 | 1018.6 |
| 20260902065849 | 75 | 98 | 0.0 | 0.0 | 0.00 | 0.00 | 0.00 | 92 | 1018.7 |
| 20260902065646 | 75 | 98 | 0.0 | 0.0 | 0.00 | 0.00 | 0.00 | 92 | 1018.7 |
| 20260902065446 | 75 | 98 | 0.0 | 0.0 | 0.00 | 0.00 | 0.00 | 92 | 1018.7 |
| 20260902065245 | 75 | 98 | 0.0 | 0.0 | 0.00 | 0.00 | 0.00 | 92 | 1018.7 |
| 20260902065043 | 75 | 98 | 0.0 | 0.0 | 0.00 | 0.00 | 0.00 | 92 | 1018.7 |
| 20260902064841 | 75 | 98 | 0.0 | 0.0 | 0.00 | 0.00 | 0.00 | 92 | 1018.7 |
| 20260902064440 | 75 | 98 | 0.0 | 0.0 | 0.00 | 0.00 | 0.00 | 92 | 1018.7 |
| 20260902064238 | 75 | 98 | 0.0 | 0.0 | 0.00 | 0.00 | 0.00 | 92 | 1018.7 |
| 20260902063638 | 75 | 98 | 0.0 | 0.0 | 0.00 | 0.00 | 0.00 | 92 | 1018.7 |
| 20260902063437 | 75 | 98 | 0.0 | 0.0 | 0.00 | 0.00 | 0.00 | 92 | 1018.7 |
| 20260902063235 | 75 | 98 | 0.0 | 0.0 | 0.00 | 0.00 | 0.00 | 92 | 1018.7 |
| 20260902063035 | 75 | 98 | 0.0 | 0.0 | 0.00 | 0.00 | 0.00 | 92 | 1018.8 |
| 20260902062833 | 76 | 98 | 0.0 | 0.0 | 0.00 | 0.00 | 0.00 | 92 | 1018.8 |
| 20260902062633 | 76 | 98 | 0.0 | 0.0 | 0.00 | 0.00 | 0.00 | 92 | 1018.8 |
| 20260902062433 | 76 | 98 | 0.0 | 0.0 | 0.00 | 0.00 | 0.00 | 92 | 1018.8 |
| 20260902062228 | 76 | 98 | 0.0 | 0.0 | 0.00 | 0.00 | 0.00 | 92 | 1018.8 |
| 20260902062030 | 76 | 98 | 0.0 | 0.0 | 0.00 | 0.00 | 0.00 | 92 | 1018.8 |
| 20260902061826 | 76 | 98 | 0.0 | 0.0 | 0.00 | 0.00 | 0.00 | 92 | 1018.8 |
| 20260902061624 | 76 | 98 | 0.0 | 0.0 | 0.00 | 0.00 | 0.00 | 92 | 1018.9 |
| 20260902061424 | 76 | 98 | 0.0 | 0.0 | 0.00 | 0.00 | 0.00 | 92 | 1018.9 |
| 20260902061220 | 76 | 98 | 0.0 | 0.0 | 0.00 | 0.00 | 0.00 | 92 | 1018.9 |
| 20260902061021 | 76 | 98 | 0.0 | 0.0 | 0.00 | 0.00 | 0.00 | 92 | 1018.9 |
| 20260902060618 | 76 | 98 | 0.0 | 0.0 | 0.00 | 0.00 | 0.00 | 92 | 1018.9 |
| 20260902060418 | 76 | 98 | 0.0 | 0.0 | 0.00 | 0.00 | 0.00 | 92 | 1018.8 |
| 20260902060218 | 76 | 98 | 0.0 | 0.0 | 0.00 | 0.00 | 0.00 | 92 | 1018.9 |
| 20260902055815 | 76 | 98 | 0.0 | 0.0 | 0.00 | 0.00 | 0.00 | 92 | 1018.9 |
| 20260902055612 | 76 | 98 | 0.0 | 0.0 | 0.00 | 0.00 | 0.00 | 92 | 1018.8 |
| 20260902055209 | 76 | 98 | 0.0 | 0.0 | 0.00 | 0.00 | 0.00 | 92 | 1018.8 |
| 20260902055008 | 76 | 98 | 0.0 | 0.0 | 0.00 | 0.00 | 0.00 | 91 | 1018.9 |
| 20260902054810 | 76 | 98 | 0.0 | 0.0 | 0.00 | 0.00 | 0.00 | 91 | 1018.8 |
| 20260902054608 | 76 | 98 | 0.0 | 0.0 | 0.00 | 0.00 | 0.00 | 91 | 1018.8 |
| 20260902054406 | 76 | 98 | 0.0 | 0.0 | 0.00 | 0.00 | 0.00 | 91 | 1018.8 |
| 20260902053802 | 76 | 98 | 0.0 | 0.0 | 0.00 | 0.00 | 0.00 | 91 | 1018.7 |
| 20260902053600 | 76 | 98 | 0.0 | 0.0 | 0.00 | 0.00 | 0.00 | 91 | 1018.8 |
| 20260902053401 | 76 | 98 | 0.0 | 0.0 | 0.00 | 0.00 | 0.00 | 91 | 1018.7 |
| 20260902053200 | 76 | 98 | 0.0 | 0.0 | 0.00 | 0.00 | 0.00 | 91 | 1018.7 |
| 20260902052959 | 76 | 98 | 0.0 | 0.0 | 0.00 | 0.00 | 0.00 | 91 | 1018.7 |
| 20260902052800 | 76 | 98 | 0.0 | 0.0 | 0.00 | 0.00 | 0.00 | 91 | 1018.6 |
| 20260902052558 | 76 | 98 | 0.0 | 0.0 | 0.00 | 0.00 | 0.00 | 91 | 1018.6 |
| 20260902052358 | 76 | 98 | 0.0 | 0.0 | 0.00 | 0.00 | 0.00 | 91 | 1018.6 |
| 20260902052157 | 76 | 98 | 0.0 | 0.0 | 0.00 | 0.00 | 0.00 | 91 | 1018.6 |
| 20260902051954 | 76 | 98 | 0.0 | 0.0 | 0.00 | 0.00 | 0.00 | 91 | 1018.6 |
| 20260902051554 | 76 | 98 | 0.0 | 0.0 | 0.00 | 0.00 | 0.00 | 91 | 1018.5 |
| 20260902051352 | 76 | 98 | 0.0 | 0.0 | 0.00 | 0.00 | 0.00 | 91 | 1018.5 |
| 20260902050951 | 76 | 98 | 0.0 | 0.0 | 0.00 | 0.00 | 0.00 | 91 | 1018.5 |
| 20260902050749 | 76 | 98 | 0.0 | 0.0 | 0.00 | 0.00 | 0.00 | 91 | 1018.5 |
| 20260902050548 | 76 | 98 | 0.0 | 0.0 | 0.00 | 0.00 | 0.00 | 91 | 1018.5 |
| 20260902050347 | 76 | 98 | 0.0 | 0.0 | 0.00 | 0.00 | 0.00 | 91 | 1018.5 |
| 20260902050144 | 76 | 98 | 0.0 | 0.0 | 0.00 | 0.00 | 0.00 | 91 | 1018.5 |
| 20260902045946 | 76 | 98 | 0.0 | 0.0 | 0.00 | 0.00 | 0.00 | 91 | 1018.5 |
| 20260902045744 | 77 | 98 | 0.0 | 0.0 | 0.00 | 0.00 | 0.00 | 91 | 1018.5 |
| 20260902045541 | 77 | 98 | 0.0 | 0.0 | 0.00 | 0.00 | 0.00 | 91 | 1018.5 |
| 20260902045342 | 77 | 98 | 0.0 | 0.0 | 0.00 | 0.00 | 0.00 | 91 | 1018.4 |
| 20260902045141 | 77 | 98 | 0.0 | 1.0 | 0.00 | 0.00 | 0.00 | 91 | 1018.4 |
| 20260902044938 | 77 | 98 | 0.0 | 1.0 | 0.00 | 0.00 | 0.00 | 90 | 1018.4 |
| 20260902044738 | 77 | 98 | 0.0 | 1.0 | 0.00 | 0.00 | 0.00 | 90 | 1018.4 |
| 20260902044534 | 77 | 98 | 0.0 | 1.0 | 0.00 | 0.00 | 0.00 | 90 | 1018.4 |
| 20260902044336 | 77 | 98 | 0.0 | 1.0 | 0.00 | 0.00 | 0.00 | 90 | 1018.3 |
| 20260902044133 | 77 | 98 | 0.0 | 0.0 | 0.00 | 0.00 | 0.00 | 90 | 1018.4 |
| 20260902043930 | 77 | 98 | 0.0 | 0.0 | 0.00 | 0.00 | 0.00 | 90 | 1018.4 |
| 20260902043730 | 77 | 98 | 0.0 | 0.0 | 0.00 | 0.00 | 0.00 | 90 | 1018.4 |
| 20260902043526 | 77 | 98 | 0.0 | 0.0 | 0.00 | 0.00 | 0.00 | 90 | 1018.3 |
| 20260902043327 | 77 | 98 | 0.0 | 0.0 | 0.00 | 0.00 | 0.00 | 90 | 1018.3 |
| 20260902043126 | 77 | 98 | 0.0 | 0.0 | 0.00 | 0.00 | 0.00 | 90 | 1018.2 |
| 20260902042926 | 77 | 98 | 0.0 | 0.0 | 0.00 | 0.00 | 0.00 | 90 | 1018.2 |
| 20260902042726 | 77 | 98 | 0.0 | 0.0 | 0.00 | 0.00 | 0.00 | 90 | 1018.2 |
| 20260902042526 | 77 | 98 | 0.0 | 0.0 | 0.00 | 0.00 | 0.00 | 90 | 1018.2 |
| 20260902042326 | 77 | 98 | 0.0 | 0.0 | 0.00 | 0.00 | 0.00 | 90 | 1018.2 |
| 20260902041922 | 77 | 98 | 0.0 | 0.0 | 0.00 | 0.00 | 0.00 | 90 | 1018.2 |
| 20260902041722 | 77 | 98 | 0.0 | 0.0 | 0.00 | 0.00 | 0.00 | 90 | 1018.2 |
| 20260902041518 | 77 | 98 | 0.0 | 0.0 | 0.00 | 0.00 | 0.00 | 90 | 1018.1 |
| 20260902041317 | 77 | 98 | 0.0 | 0.0 | 0.00 | 0.00 | 0.00 | 90 | 1018.2 |
| 20260902041115 | 77 | 98 | 0.0 | 0.0 | 0.00 | 0.00 | 0.00 | 90 | 1018.2 |
| 20260902040915 | 77 | 98 | 0.0 | 0.0 | 0.00 | 0.00 | 0.00 | 90 | 1018.2 |
| 20260902040713 | 77 | 98 | 0.0 | 0.0 | 0.00 | 0.00 | 0.00 | 90 | 1018.2 |
| 20260902040510 | 77 | 98 | 0.0 | 0.0 | 0.00 | 0.00 | 0.00 | 90 | 1018.2 |
| 20260902040105 | 77 | 98 | 0.0 | 0.0 | 0.00 | 0.00 | 0.00 | 90 | 1018.2 |
| 20260902035902 | 77 | 98 | 0.0 | 0.0 | 0.00 | 0.00 | 0.00 | 90 | 1018.2 |
| 20260902035704 | 78 | 98 | 0.0 | 0.0 | 0.00 | 0.00 | 0.00 | 90 | 1018.1 |
| 20260902035305 | 78 | 98 | 0.0 | 0.0 | 0.00 | 0.00 | 0.00 | 90 | 1018.0 |
| 20260902034857 | 78 | 98 | 0.0 | 0.0 | 0.00 | 0.00 | 0.00 | 90 | 1018.1 |
| 20260902034252 | 78 | 98 | 0.0 | 0.0 | 0.00 | 0.00 | 0.00 | 90 | 1018.2 |
| 20260902034051 | 78 | 98 | 0.0 | 2.0 | 0.00 | 0.00 | 0.00 | 90 | 1018.2 |
| 20260902033848 | 78 | 98 | 0.0 | 2.0 | 0.00 | 0.00 | 0.00 | 90 | 1018.2 |
| 20260902033447 | 78 | 98 | 0.0 | 2.0 | 0.00 | 0.00 | 0.00 | 90 | 1018.2 |
| 20260902032842 | 78 | 98 | 0.0 | 2.0 | 0.00 | 0.00 | 0.00 | 90 | 1018.3 |
| 20260902032644 | 78 | 98 | 0.0 | 2.0 | 0.00 | 0.00 | 0.00 | 90 | 1018.3 |
| 20260902032444 | 78 | 98 | 0.0 | 2.0 | 0.00 | 0.00 | 0.00 | 90 | 1018.3 |
| 20260902032243 | 78 | 98 | 0.0 | 2.0 | 0.00 | 0.00 | 0.00 | 90 | 1018.3 |
| 20260902032043 | 78 | 98 | 0.0 | 0.0 | 0.00 | 0.00 | 0.00 | 89 | 1018.3 |
| 20260902031638 | 78 | 98 | 0.0 | 0.0 | 0.00 | 0.00 | 0.00 | 89 | 1018.3 |
| 20260902031438 | 78 | 98 | 0.0 | 0.0 | 0.00 | 0.00 | 0.00 | 89 | 1018.3 |
| 20260902031236 | 78 | 98 | 0.0 | 0.0 | 0.00 | 0.00 | 0.00 | 89 | 1018.3 |
| 20260902031034 | 78 | 98 | 0.0 | 0.0 | 0.00 | 0.00 | 0.00 | 89 | 1018.3 |
| 20260902030834 | 78 | 98 | 0.0 | 0.0 | 0.00 | 0.00 | 0.00 | 89 | 1018.3 |
| 20260902030637 | 78 | 98 | 0.0 | 0.0 | 0.00 | 0.00 | 0.00 | 89 | 1018.3 |
| 20260902030433 | 78 | 98 | 0.0 | 0.0 | 0.00 | 0.00 | 0.00 | 89 | 1018.3 |
| 20260902030231 | 78 | 98 | 0.0 | 0.0 | 0.00 | 0.00 | 0.00 | 89 | 1018.3 |
| 20260902030030 | 78 | 98 | 0.0 | 0.0 | 0.00 | 0.00 | 0.00 | 89 | 1018.3 |
| 20260902025830 | 78 | 98 | 0.0 | 0.0 | 0.00 | 0.00 | 0.00 | 89 | 1018.3 |
| 20260902025627 | 78 | 98 | 0.0 | 0.0 | 0.00 | 0.00 | 0.00 | 89 | 1018.3 |
| 20260902025429 | 78 | 98 | 0.0 | 0.0 | 0.00 | 0.00 | 0.00 | 89 | 1018.2 |
| 20260902025222 | 78 | 98 | 0.0 | 0.0 | 0.00 | 0.00 | 0.00 | 89 | 1018.2 |
| 20260902025022 | 78 | 98 | 0.0 | 0.0 | 0.00 | 0.00 | 0.00 | 89 | 1018.2 |
| 20260902024820 | 78 | 98 | 0.0 | 0.0 | 0.00 | 0.00 | 0.00 | 89 | 1018.2 |
| 20260902024618 | 78 | 98 | 0.0 | 0.0 | 0.00 | 0.00 | 0.00 | 89 | 1018.2 |
| 20260902024416 | 78 | 98 | 0.0 | 0.0 | 0.00 | 0.00 | 0.00 | 89 | 1018.2 |
| 20260902024216 | 78 | 98 | 0.0 | 0.0 | 0.00 | 0.00 | 0.00 | 89 | 1018.2 |
| 20260902024014 | 78 | 98 | 0.0 | 0.0 | 0.00 | 0.00 | 0.00 | 89 | 1018.2 |
| 20260902023812 | 78 | 98 | 0.0 | 0.0 | 0.00 | 0.00 | 0.00 | 89 | 1018.2 |
| 20260902023612 | 78 | 98 | 0.0 | 0.0 | 0.00 | 0.00 | 0.00 | 89 | 1018.2 |
| 20260902023410 | 78 | 98 | 0.0 | 0.0 | 0.00 | 0.00 | 0.00 | 89 | 1018.2 |
| 20260902023008 | 79 | 98 | 0.0 | 0.0 | 0.00 | 0.00 | 0.00 | 89 | 1018.2 |
| 20260902022809 | 79 | 98 | 0.0 | 0.0 | 0.00 | 0.00 | 0.00 | 89 | 1018.2 |
| 20260902022606 | 79 | 98 | 0.0 | 0.0 | 0.00 | 0.00 | 0.00 | 89 | 1018.2 |
| 20260902022404 | 79 | 98 | 0.0 | 0.0 | 0.00 | 0.00 | 0.00 | 88 | 1018.2 |
| 20260902022203 | 79 | 98 | 0.0 | 0.0 | 0.00 | 0.00 | 0.00 | 88 | 1018.3 |
| 20260902022001 | 79 | 98 | 0.0 | 0.0 | 0.00 | 0.00 | 0.00 | 88 | 1018.3 |
| 20260902021801 | 79 | 98 | 0.0 | 0.0 | 0.00 | 0.00 | 0.00 | 88 | 1018.2 |
| 20260902021601 | 79 | 98 | 0.0 | 0.0 | 0.00 | 0.00 | 0.00 | 88 | 1018.2 |
| 20260902020956 | 79 | 98 | 0.0 | 0.0 | 0.00 | 0.00 | 0.00 | 88 | 1018.1 |
| 20260902020758 | 79 | 98 | 0.0 | 0.0 | 0.00 | 0.00 | 0.00 | 88 | 1018.1 |
| 20260902020555 | 79 | 98 | 0.0 | 0.0 | 0.00 | 0.00 | 0.00 | 88 | 1018.1 |
| 20260902020355 | 79 | 98 | 0.0 | 0.0 | 0.00 | 0.00 | 0.00 | 88 | 1018.1 |
| 20260902020154 | 79 | 98 | 0.0 | 0.0 | 0.00 | 0.00 | 0.00 | 88 | 1018.1 |
| 20260902015550 | 79 | 98 | 0.0 | 0.0 | 0.00 | 0.00 | 0.00 | 88 | 1017.9 |
| 20260902015349 | 79 | 98 | 0.0 | 0.0 | 0.00 | 0.00 | 0.00 | 87 | 1017.9 |
| 20260902014944 | 79 | 98 | 0.0 | 0.0 | 0.00 | 0.00 | 0.00 | 87 | 1017.8 |
| 20260902014139 | 79 | 98 | 0.0 | 0.0 | 0.00 | 0.00 | 0.00 | 86 | 1017.7 |
| 20260902013940 | 79 | 98 | 0.0 | 0.0 | 0.00 | 0.00 | 0.00 | 86 | 1017.7 |
| 20260902013536 | 80 | 98 | 0.0 | 0.0 | 0.00 | 0.00 | 0.00 | 86 | 1017.6 |
| 20260902013337 | 80 | 98 | 0.0 | 0.0 | 0.00 | 0.00 | 0.00 | 86 | 1017.6 |
| 20260902013135 | 80 | 98 | 0.0 | 0.0 | 0.00 | 0.00 | 0.00 | 86 | 1017.6 |
| 20260902012932 | 80 | 98 | 0.0 | 0.0 | 0.00 | 0.00 | 0.00 | 86 | 1017.6 |
| 20260902012731 | 80 | 98 | 0.0 | 0.0 | 0.00 | 0.00 | 0.00 | 86 | 1017.6 |
| 20260902012531 | 80 | 98 | 0.0 | 0.0 | 0.00 | 0.00 | 0.00 | 86 | 1017.6 |
| 20260902012331 | 80 | 98 | 0.0 | 0.0 | 0.00 | 0.00 | 0.00 | 86 | 1017.6 |
| 20260902012128 | 80 | 98 | 0.0 | 0.0 | 0.00 | 0.00 | 0.00 | 86 | 1017.6 |
| 20260902011725 | 80 | 98 | 0.0 | 0.0 | 0.00 | 0.00 | 0.00 | 86 | 1017.6 |
| 20260902011524 | 80 | 98 | 0.0 | 0.0 | 0.00 | 0.00 | 0.00 | 86 | 1017.5 |
| 20260902011325 | 80 | 98 | 0.0 | 0.0 | 0.00 | 0.00 | 0.00 | 86 | 1017.5 |
| 20260902011126 | 80 | 98 | 0.0 | 0.0 | 0.00 | 0.00 | 0.00 | 86 | 1017.4 |
| 20260902010924 | 80 | 98 | 0.0 | 0.0 | 0.00 | 0.00 | 0.00 | 86 | 1017.4 |
| 20260902010722 | 80 | 98 | 0.0 | 0.0 | 0.00 | 0.00 | 0.00 | 85 | 1017.4 |
| 20260902010521 | 80 | 98 | 0.0 | 0.0 | 0.00 | 0.00 | 0.00 | 85 | 1017.4 |
| 20260902010317 | 80 | 98 | 0.0 | 0.0 | 0.00 | 0.00 | 0.00 | 85 | 1017.4 |
| 20260902010117 | 80 | 98 | 0.0 | 0.0 | 0.00 | 0.00 | 0.00 | 85 | 1017.4 |
| 20260902005917 | 80 | 98 | 0.0 | 0.0 | 0.00 | 0.00 | 0.00 | 85 | 1017.3 |
| 20260902005716 | 80 | 98 | 0.0 | 0.0 | 0.00 | 0.00 | 0.00 | 86 | 1017.3 |
| 20260902005516 | 80 | 98 | 0.0 | 0.0 | 0.00 | 0.00 | 0.00 | 86 | 1017.3 |
| 20260902005316 | 80 | 98 | 0.0 | 0.0 | 0.00 | 0.00 | 0.00 | 86 | 1017.3 |
| 20260902005116 | 81 | 98 | 0.0 | 0.0 | 0.00 | 0.00 | 0.00 | 86 | 1017.3 |
| 20260902004914 | 81 | 98 | 0.0 | 0.0 | 0.00 | 0.00 | 0.00 | 85 | 1017.2 |
| 20260902004716 | 81 | 98 | 0.0 | 0.0 | 0.00 | 0.00 | 0.00 | 85 | 1017.2 |
| 20260902004315 | 81 | 98 | 0.0 | 0.0 | 0.00 | 0.00 | 0.00 | 85 | 1017.2 |
| 20260902004112 | 81 | 98 | 0.0 | 0.0 | 0.00 | 0.00 | 0.00 | 85 | 1017.2 |
| 20260902003710 | 81 | 98 | 0.0 | 0.0 | 0.00 | 0.00 | 0.00 | 84 | 1017.2 |
| 20260902003305 | 81 | 98 | 0.0 | 0.0 | 0.00 | 0.00 | 0.00 | 84 | 1017.2 |
| 20260902003113 | 81 | 98 | 0.0 | 0.0 | 0.00 | 0.00 | 0.00 | 84 | 1017.2 |
| 20260902002906 | 82 | 98 | 0.0 | 0.0 | 0.00 | 0.00 | 0.00 | 84 | 1017.1 |
| 20260902002706 | 82 | 98 | 0.0 | 0.0 | 0.00 | 0.00 | 0.00 | 84 | 1017.2 |
| 20260902002506 | 82 | 98 | 0.0 | 0.0 | 0.00 | 0.00 | 0.00 | 83 | 1017.1 |
| 20260902002306 | 82 | 98 | 0.0 | 0.0 | 0.00 | 0.00 | 0.00 | 83 | 1017.1 |
| 20260902002106 | 82 | 98 | 0.0 | 0.0 | 0.00 | 0.00 | 0.00 | 83 | 1017.2 |
| 20260902001907 | 82 | 98 | 0.0 | 0.0 | 0.00 | 0.00 | 0.00 | 83 | 1017.1 |
| 20260902001704 | 82 | 98 | 0.0 | 0.0 | 0.00 | 0.00 | 0.00 | 82 | 1017.1 |
| 20260902001502 | 82 | 98 | 0.0 | 0.0 | 0.00 | 0.00 | 0.00 | 82 | 1017.1 |
| 20260902001303 | 82 | 98 | 0.0 | 0.0 | 0.00 | 0.00 | 0.00 | 82 | 1017.2 |
| 20260902001103 | 82 | 98 | 0.0 | 0.0 | 0.00 | 0.00 | 0.00 | 82 | 1017.2 |
| 20260902000903 | 82 | 98 | 0.0 | 0.0 | 0.00 | 0.00 | 0.00 | 82 | 1017.2 |
| 20260902000502 | 82 | 98 | 0.0 | 0.0 | 0.00 | 0.00 | 0.00 | 81 | 1017.2 |
| 20260902000300 | 82 | 98 | 0.0 | 0.0 | 0.00 | 0.00 | 0.00 | 81 | 1017.2 |
| 20260902000100 | 83 | 98 | 0.0 | 0.0 | 0.00 | 0.00 | 0.00 | 81 | 1017.2 |
| 20260901235900 | 83 | 98 | 0.0 | 0.0 | 0.00 | 0.00 | 0.00 | 81 | 1017.2 |
| 20260901235656 | 83 | 98 | 0.0 | 0.0 | 0.00 | 0.00 | 0.00 | 81 | 1017.2 |
| 20260901235454 | 83 | 98 | 0.0 | 0.0 | 0.00 | 0.00 | 0.00 | 81 | 1017.2 |
| 20260901235255 | 83 | 98 | 0.0 | 0.0 | 0.00 | 0.00 | 0.00 | 80 | 1017.2 |
| 20260901235055 | 83 | 98 | 0.0 | 0.0 | 0.00 | 0.00 | 0.00 | 80 | 1017.2 |
| 20260901234855 | 83 | 98 | 0.0 | 0.0 | 0.00 | 0.00 | 0.00 | 80 | 1017.2 |
| 20260901234655 | 83 | 98 | 0.0 | 0.0 | 0.00 | 0.00 | 0.00 | 80 | 1017.3 |
| 20260901234454 | 83 | 98 | 0.0 | 0.0 | 0.00 | 0.00 | 0.00 | 80 | 1017.3 |
| 20260901234050 | 83 | 98 | 0.0 | 0.0 | 0.00 | 0.00 | 0.00 | 79 | 1017.4 |
| 20260901233446 | 84 | 98 | 0.0 | 0.0 | 0.00 | 0.00 | 0.00 | 79 | 1017.4 |
| 20260901233245 | 84 | 98 | 0.0 | 0.0 | 0.00 | 0.00 | 0.00 | 79 | 1017.4 |
| 20260901233044 | 84 | 98 | 0.0 | 0.0 | 0.00 | 0.00 | 0.00 | 79 | 1017.4 |
| 20260901232645 | 84 | 98 | 0.0 | 0.0 | 0.00 | 0.00 | 0.00 | 78 | 1017.4 |
| 20260901232443 | 84 | 98 | 0.0 | 0.0 | 0.00 | 0.00 | 0.00 | 78 | 1017.4 |
| 20260901232040 | 84 | 98 | 0.0 | 0.0 | 0.00 | 0.00 | 0.00 | 78 | 1017.4 |
| 20260901231838 | 84 | 98 | 0.0 | 0.0 | 0.00 | 0.00 | 0.00 | 78 | 1017.4 |
| 20260901231637 | 84 | 98 | 0.0 | 0.0 | 0.00 | 0.00 | 0.00 | 78 | 1017.5 |
| 20260901231037 | 84 | 98 | 0.0 | 0.0 | 0.00 | 0.00 | 0.00 | 77 | 1017.5 |
| 20260901230835 | 84 | 98 | 0.0 | 0.0 | 0.00 | 0.00 | 0.00 | 77 | 1017.5 |
| 20260901230633 | 84 | 98 | 0.0 | 0.0 | 0.00 | 0.00 | 0.00 | 77 | 1017.5 |
| 20260901230434 | 85 | 98 | 0.0 | 0.0 | 0.00 | 0.00 | 0.00 | 76 | 1017.6 |
| 20260901230231 | 85 | 98 | 0.0 | 0.0 | 0.00 | 0.00 | 0.00 | 76 | 1017.6 |
| 20260901230031 | 85 | 98 | 0.0 | 0.0 | 0.00 | 0.00 | 0.00 | 76 | 1017.6 |
| 20260901225829 | 85 | 98 | 0.0 | 0.0 | 0.00 | 0.00 | 0.00 | 76 | 1017.6 |
| 20260901225628 | 85 | 98 | 0.0 | 0.0 | 0.00 | 0.00 | 0.00 | 76 | 1017.6 |
| 20260901225430 | 85 | 98 | 0.0 | 0.0 | 0.00 | 0.00 | 0.00 | 76 | 1017.6 |
| 20260901225228 | 85 | 98 | 0.0 | 0.0 | 0.00 | 0.00 | 0.00 | 75 | 1017.6 |
| 20260901225029 | 85 | 98 | 0.0 | 0.0 | 0.00 | 0.00 | 0.00 | 75 | 1017.5 |
| 20260901224829 | 85 | 98 | 0.0 | 0.0 | 0.00 | 0.00 | 0.00 | 75 | 1017.6 |
| 20260901224625 | 85 | 98 | 0.0 | 0.0 | 0.00 | 0.00 | 0.00 | 75 | 1017.5 |
| 20260901224426 | 85 | 98 | 0.0 | 0.0 | 0.00 | 0.00 | 0.00 | 75 | 1017.6 |
| 20260901224222 | 85 | 98 | 0.0 | 0.0 | 0.00 | 0.00 | 0.00 | 75 | 1017.6 |
| 20260901223820 | 85 | 98 | 0.0 | 0.0 | 0.00 | 0.00 | 0.00 | 75 | 1017.5 |
| 20260901223418 | 85 | 98 | 0.0 | 0.0 | 0.00 | 0.00 | 0.00 | 75 | 1017.5 |
| 20260901223014 | 86 | 98 | 0.0 | 0.0 | 0.00 | 0.00 | 0.00 | 75 | 1017.5 |
| 20260901222612 | 86 | 98 | 0.0 | 0.0 | 0.00 | 0.00 | 0.00 | 74 | 1017.5 |
| 20260901222412 | 86 | 98 | 0.0 | 0.0 | 0.00 | 0.00 | 0.00 | 74 | 1017.6 |
| 20260901222211 | 86 | 98 | 0.0 | 0.0 | 0.00 | 0.00 | 0.00 | 74 | 1017.5 |
| 20260901222011 | 86 | 98 | 0.0 | 0.0 | 0.00 | 0.00 | 0.00 | 73 | 1017.5 |
| 20260901221809 | 86 | 98 | 0.0 | 0.0 | 0.00 | 0.00 | 0.00 | 73 | 1017.5 |
| 20260901221608 | 86 | 98 | 0.0 | 0.0 | 0.00 | 0.00 | 0.00 | 73 | 1017.5 |
| 20260901221406 | 86 | 98 | 0.0 | 0.0 | 0.00 | 0.00 | 0.00 | 73 | 1017.5 |
| 20260901221206 | 86 | 98 | 0.0 | 0.0 | 0.00 | 0.00 | 0.00 | 73 | 1017.5 |
| 20260901221004 | 87 | 98 | 0.0 | 0.0 | 0.00 | 0.00 | 0.00 | 73 | 1017.5 |
| 20260901220804 | 87 | 98 | 0.0 | 0.0 | 0.00 | 0.00 | 0.00 | 73 | 1017.4 |
| 20260901220604 | 87 | 98 | 0.0 | 0.0 | 0.00 | 0.00 | 0.00 | 73 | 1017.5 |
| 20260901220404 | 87 | 98 | 0.0 | 0.0 | 0.00 | 0.00 | 0.00 | 72 | 1017.4 |
| 20260901220205 | 87 | 98 | 0.0 | 0.0 | 0.00 | 0.00 | 0.00 | 73 | 1017.4 |
| 20260901220003 | 87 | 98 | 0.0 | 0.0 | 0.00 | 0.00 | 0.00 | 73 | 1017.4 |
| 20260901215804 | 87 | 98 | 0.0 | 0.0 | 0.00 | 0.00 | 0.00 | 72 | 1017.4 |
| 20260901215604 | 87 | 98 | 0.0 | 0.0 | 0.00 | 0.00 | 0.00 | 73 | 1017.4 |
| 20260901215401 | 87 | 98 | 0.0 | 0.0 | 0.00 | 0.00 | 0.00 | 72 | 1017.4 |
| 20260901215203 | 87 | 98 | 0.0 | 0.0 | 0.00 | 0.00 | 0.00 | 71 | 1017.4 |
| 20260901215001 | 87 | 98 | 0.0 | 0.0 | 0.00 | 0.00 | 0.00 | 70 | 1017.4 |
| 20260901214801 | 87 | 98 | 0.0 | 0.0 | 0.00 | 0.00 | 0.00 | 70 | 1017.5 |
| 20260901214602 | 87 | 98 | 0.0 | 0.0 | 0.00 | 0.00 | 0.00 | 70 | 1017.5 |
| 20260901214402 | 87 | 98 | 0.0 | 0.0 | 0.00 | 0.00 | 0.00 | 70 | 1017.5 |
| 20260901214202 | 87 | 98 | 0.0 | 0.0 | 0.00 | 0.00 | 0.00 | 70 | 1017.5 |
| 20260901214002 | 87 | 98 | 0.0 | 1.0 | 0.00 | 0.00 | 0.00 | 70 | 1017.5 |
| 20260901213602 | 88 | 98 | 0.0 | 1.0 | 0.00 | 0.00 | 0.00 | 71 | 1017.5 |
| 20260901213401 | 88 | 98 | 0.0 | 1.0 | 0.00 | 0.00 | 0.00 | 71 | 1017.5 |
| 20260901212958 | 88 | 98 | 0.0 | 1.0 | 0.00 | 0.00 | 0.00 | 71 | 1017.6 |
| 20260901212800 | 88 | 98 | 0.0 | 1.0 | 0.00 | 0.00 | 0.00 | 71 | 1017.6 |
| 20260901212357 | 88 | 98 | 0.0 | 0.0 | 0.00 | 0.00 | 0.00 | 71 | 1017.6 |
| 20260901212158 | 88 | 98 | 0.0 | 0.0 | 0.00 | 0.00 | 0.00 | 70 | 1017.6 |
| 20260901211959 | 88 | 98 | 0.0 | 0.0 | 0.00 | 0.00 | 0.00 | 70 | 1017.6 |
| 20260901211554 | 89 | 98 | 0.0 | 2.0 | 0.00 | 0.00 | 0.00 | 70 | 1017.6 |
| 20260901211151 | 89 | 98 | 0.0 | 2.0 | 0.00 | 0.00 | 0.00 | 70 | 1017.6 |
| 20260901210950 | 89 | 98 | 0.0 | 2.0 | 0.00 | 0.00 | 0.00 | 70 | 1017.6 |
| 20260901210547 | 89 | 98 | 0.0 | 1.0 | 0.00 | 0.00 | 0.00 | 70 | 1017.6 |
| 20260901210343 | 89 | 98 | 0.0 | 1.0 | 0.00 | 0.00 | 0.00 | 69 | 1017.6 |
| 20260901210143 | 89 | 98 | 0.0 | 1.0 | 0.00 | 0.00 | 0.00 | 70 | 1017.6 |
| 20260901205942 | 89 | 98 | 0.0 | 1.0 | 0.00 | 0.00 | 0.00 | 71 | 1017.7 |
| 20260901205740 | 89 | 98 | 0.0 | 3.0 | 0.00 | 0.00 | 0.00 | 64 | 1017.6 |
| 20260901205537 | 89 | 98 | 0.0 | 3.0 | 0.00 | 0.00 | 0.00 | 66 | 1017.7 |
| 20260901205134 | 89 | 98 | 0.0 | 3.0 | 0.00 | 0.00 | 0.00 | 71 | 1017.7 |
| 20260901204933 | 89 | 98 | 0.0 | 3.0 | 0.00 | 0.00 | 0.00 | 71 | 1017.7 |
| 20260901204735 | 89 | 118 | 0.0 | 2.0 | 0.00 | 0.00 | 0.00 | 71 | 1017.7 |